TimeCDT,TemperatureF,Dew PointF,Humidity,Sea Level PressureIn,VisibilityMPH,Wind Direction,Wind SpeedMPH,Gust SpeedMPH,PrecipitationIn,Events,Conditions,WindDirDegrees,DateUTC
12:15 AM,48.2,39.4,72,29.60,10.0,East,4.6,-,N/A,,Clear,100,2013-03-18 05:15:00
12:35 AM,48.2,39.4,72,29.60,10.0,SSE,6.9,-,N/A,,Clear,150,2013-03-18 05:35:00
12:55 AM,47.5,39.2,73,29.61,10.0,Calm,Calm,-,N/A,,Clear,0,2013-03-18 05:55:00
1:15 AM,44.2,38.8,81,29.65,10.0,North,9.2,-,N/A,,Clear,360,2013-03-18 06:15:00
1:35 AM,43.2,38.7,84,29.66,10.0,NNE,3.5,-,N/A,,Clear,20,2013-03-18 06:35:00
1:55 AM,43.0,38.7,85,29.66,10.0,Calm,Calm,-,N/A,,Clear,0,2013-03-18 06:55:00
2:15 AM,41.9,38.3,87,29.65,10.0,East,4.6,-,N/A,,Clear,90,2013-03-18 07:15:00
2:35 AM,43.0,39.2,86,29.70,10.0,NE,6.9,17.3,N/A,,Clear,50,2013-03-18 07:35:00
2:55 AM,40.1,37.4,90,29.72,7.0,Calm,Calm,-,N/A,,Clear,0,2013-03-18 07:55:00
3:15 AM,41.4,38.3,89,29.73,7.0,Calm,Calm,-,N/A,,Clear,0,2013-03-18 08:15:00
3:35 AM,38.7,36.3,91,29.77,7.0,North,5.8,-,N/A,,Clear,350,2013-03-18 08:35:00
3:55 AM,41.4,38.7,90,29.80,7.0,NNE,16.1,23.0,N/A,,Clear,20,2013-03-18 08:55:00
4:15 AM,39.2,36.7,91,29.81,7.0,NNE,10.4,-,N/A,,Scattered Clouds,30,2013-03-18 09:15:00
4:35 AM,39.2,37.4,93,29.83,5.0,North,12.7,-,N/A,,Overcast,10,2013-03-18 09:35:00
4:55 AM,39.6,37.6,93,29.85,5.0,North,15.0,20.7,N/A,,Overcast,10,2013-03-18 09:55:00
5:15 AM,39.9,37.4,91,29.86,7.0,North,13.8,-,N/A,,Overcast,10,2013-03-18 10:15:00
5:35 AM,40.1,37.0,89,29.88,7.0,North,10.4,19.6,N/A,,Overcast,10,2013-03-18 10:35:00
5:55 AM,39.7,37.0,90,29.90,7.0,North,9.2,-,N/A,,Mostly Cloudy,360,2013-03-18 10:55:00
6:15 AM,39.0,36.5,91,29.89,7.0,North,8.1,-,N/A,,Scattered Clouds,10,2013-03-18 11:15:00
6:35 AM,38.1,36.3,93,29.89,5.0,North,3.5,-,N/A,,Clear,360,2013-03-18 11:35:00
6:55 AM,38.3,36.1,92,29.91,5.0,North,6.9,-,N/A,,Clear,360,2013-03-18 11:55:00
7:15 AM,37.8,35.4,91,29.91,7.0,North,3.5,-,N/A,,Clear,10,2013-03-18 12:15:00
7:35 AM,38.7,33.1,80,29.93,10.0,North,3.5,-,N/A,,Clear,10,2013-03-18 12:35:00
7:55 AM,38.8,32.0,76,29.95,10.0,North,3.5,-,N/A,,Clear,360,2013-03-18 12:55:00
8:15 AM,39.6,31.5,73,29.96,10.0,North,5.8,-,N/A,,Clear,10,2013-03-18 13:15:00
8:35 AM,39.7,31.6,73,29.96,10.0,North,3.5,-,N/A,,Clear,350,2013-03-18 13:35:00
8:55 AM,41.0,31.3,68,29.98,10.0,NNW,6.9,-,N/A,,Clear,330,2013-03-18 13:55:00
9:15 AM,41.9,31.1,66,29.98,10.0,North,9.2,-,N/A,,Clear,350,2013-03-18 14:15:00
9:35 AM,43.0,30.6,62,29.99,10.0,North,10.4,-,N/A,,Clear,360,2013-03-18 14:35:00
9:55 AM,44.4,29.1,55,30.00,10.0,North,12.7,19.6,N/A,,Clear,10,2013-03-18 14:55:00
10:15 AM,45.7,28.0,50,30.02,10.0,NNE,13.8,20.7,N/A,,Clear,20,2013-03-18 15:15:00
10:35 AM,46.9,25.7,44,30.02,10.0,NNE,10.4,20.7,N/A,,Clear,20,2013-03-18 15:35:00
10:55 AM,47.3,24.8,41,30.02,10.0,NNE,15.0,-,N/A,,Clear,20,2013-03-18 15:55:00
11:15 AM,48.4,23.2,37,30.02,10.0,NNE,13.8,-,N/A,,Clear,30,2013-03-18 16:15:00
11:35 AM,50.0,21.9,33,30.02,10.0,NE,13.8,19.6,N/A,,Clear,40,2013-03-18 16:35:00
11:55 AM,50.4,21.2,32,30.03,10.0,NNE,9.2,19.6,N/A,,Clear,20,2013-03-18 16:55:00
12:15 PM,51.1,19.2,29,30.03,10.0,NNE,10.4,17.3,N/A,,Clear,20,2013-03-18 17:15:00
12:35 PM,51.8,19.2,28,30.03,10.0,NE,6.9,-,N/A,,Clear,40,2013-03-18 17:35:00
12:55 PM,52.9,18.3,26,30.02,10.0,NNE,11.5,19.6,N/A,,Clear,20,2013-03-18 17:55:00
1:15 PM,53.1,16.0,23,30.02,10.0,NE,11.5,17.3,N/A,,Clear,50,2013-03-18 18:15:00
1:35 PM,53.6,15.3,22,30.01,10.0,NE,6.9,17.3,N/A,,Clear,50,2013-03-18 18:35:00
1:55 PM,55.0,13.3,19,30.00,10.0,North,11.5,17.3,N/A,,Clear,360,2013-03-18 18:55:00
2:15 PM,55.2,13.6,19,30.00,10.0,NE,10.4,17.3,N/A,,Clear,40,2013-03-18 19:15:00
2:35 PM,55.2,14.0,20,29.99,10.0,NE,9.2,19.6,N/A,,Clear,50,2013-03-18 19:35:00
2:55 PM,55.6,13.8,19,29.98,10.0,NE,6.9,-,N/A,,Clear,40,2013-03-18 19:55:00
3:55 PM,56.7,13.3,18,29.98,10.0,North,9.2,-,N/A,,Clear,360,2013-03-18 20:55:00
4:15 PM,57.0,13.1,18,29.98,10.0,East,3.5,-,N/A,,Clear,90,2013-03-18 21:15:00
4:35 PM,57.6,13.5,18,29.98,10.0,East,5.8,-,N/A,,Clear,80,2013-03-18 21:35:00
4:55 PM,57.6,12.9,17,29.98,10.0,SW,4.6,-,N/A,,Clear,230,2013-03-18 21:55:00
5:15 PM,57.7,12.9,17,29.97,10.0,North,4.6,-,N/A,,Clear,360,2013-03-18 22:15:00
5:35 PM,57.7,13.5,18,29.97,10.0,Calm,Calm,-,N/A,,Clear,0,2013-03-18 22:35:00
5:55 PM,57.4,12.9,17,29.96,10.0,NE,3.5,-,N/A,,Clear,50,2013-03-18 22:55:00
6:15 PM,57.6,12.9,17,29.96,10.0,Calm,Calm,-,N/A,,Clear,0,2013-03-18 23:15:00
6:35 PM,57.7,13.3,17,29.96,10.0,Calm,Calm,-,N/A,,Clear,0,2013-03-18 23:35:00
6:55 PM,57.7,13.3,17,29.95,10.0,ESE,3.5,-,N/A,,Clear,120,2013-03-18 23:55:00
7:15 PM,57.4,13.6,18,29.95,10.0,Calm,Calm,-,N/A,,Clear,0,2013-03-19 00:15:00
7:35 PM,56.1,17.6,22,29.95,10.0,SE,3.5,-,N/A,,Clear,140,2013-03-19 00:35:00
7:55 PM,53.6,18.9,26,29.95,10.0,ESE,6.9,-,N/A,,Clear,120,2013-03-19 00:55:00
8:15 PM,53.2,18.0,25,29.94,10.0,SE,6.9,-,N/A,,Clear,130,2013-03-19 01:15:00
8:35 PM,51.8,19.4,28,29.94,10.0,ESE,6.9,-,N/A,,Clear,120,2013-03-19 01:35:00
8:55 PM,51.1,19.0,28,29.94,10.0,SE,9.2,-,N/A,,Clear,130,2013-03-19 01:55:00
9:15 PM,50.0,19.8,30,29.94,10.0,ESE,10.4,-,N/A,,Clear,120,2013-03-19 02:15:00
9:35 PM,50.0,20.3,31,29.95,10.0,SE,10.4,-,N/A,,Clear,130,2013-03-19 02:35:00
9:55 PM,47.7,21.4,35,29.96,10.0,SE,10.4,-,N/A,,Clear,130,2013-03-19 02:55:00
10:15 PM,47.8,21.7,36,29.96,10.0,SE,10.4,-,N/A,,Clear,130,2013-03-19 03:15:00
10:55 PM,47.3,22.6,38,29.96,10.0,ESE,10.4,-,N/A,,Clear,120,2013-03-19 03:55:00
11:15 PM,48.2,22.5,36,29.97,10.0,SE,11.5,-,N/A,,Clear,140,2013-03-19 04:15:00
11:35 PM,48.2,22.5,36,29.97,10.0,SSE,8.1,16.1,N/A,,Clear,150,2013-03-19 04:35:00
11:55 PM,46.6,23.2,40,29.97,10.0,SSE,11.5,-,N/A,,Clear,150,2013-03-19 04:55:00